Wind_Speed
54 54 53 52 51 53 52 51 50 48 45 41 36 33 32 31 30 31 31 29 27 26
55 56 56 53 53 54 53 51 52 49 45 41 36 32 33 34 33 31 30 30 29 30
57 58 57 54 53 53 54 51 49 50 46 41 37 34 33 34 35 35 35 34 32 31
56 57 58 57 54 50 49 50 44 49 47 43 41 38 38 38 37 37 38 36 33 32
53 56 59 59 56 53 50 47 43 43 46 44 43 42 39 40 39 38 38 37 34 33
52 55 56 52 55 51 48 46 45 44 45 42 43 45 42 40 38 38 36 36 34 33
52 55 55 55 51 48 44 45 42 43 44 41 42 44 44 44 43 40 37 35 34 33
47 49 51 52 48 46 45 44 44 42 38 36 35 45 45 42 40 38 37 36 34 33
44 42 44 44 45 44 47 44 42 41 40 42 40 41 37 39 38 37 38 38 35 33
36 36 37 38 40 41 42 40 37 36 34 33 36 36 32 31 30 30 36 36 33 30
33 34 33 33 34 34 38 35 31 32 28 25 26 27 27 27 29 32 32 29 30 29
25 27 30 34 32 32 37 27 23 21 21 22 21 23 24 24 27 30 30 30 28 25
14 18 19 22 23 20 11 19 21 19 19 16 11 12 12 19 21 23 27 26 23 25
19 12 14 16 16 15 19 19 19 20 18 17 18 20 19 18 19 23 24 23 31 33
Wind_Direction
217 219 218 217 214 212 214 213 211 212 217 221 226 232 234 233 232 235 239 246 249 250
218 219 220 220 219 217 216 217 216 216 219 224 228 233 237 234 234 239 242 247 249 250
218 220 222 221 221 219 219 219 220 220 221 225 230 234 240 238 239 241 244 246 248 250
219 221 222 222 222 222 223 222 224 221 223 228 230 234 237 239 240 241 244 247 249 247
218 220 224 224 224 224 225 225 223 223 225 230 235 237 238 238 239 242 247 247 246 242
218 220 221 222 226 229 230 230 230 228 229 233 237 240 242 241 246 248 251 250 243 241
224 225 224 226 228 229 232 233 231 234 233 237 242 245 243 242 243 245 248 246 240 239
228 228 227 229 226 228 230 233 231 235 242 241 240 249 247 246 246 244 244 238 234 237
224 227 228 229 227 226 231 234 238 243 241 243 241 249 251 249 247 247 237 234 232 227
225 228 227 226 225 226 228 234 235 236 238 242 241 248 252 251 248 244 234 227 227 218
219 221 220 219 216 223 222 227 232 229 232 239 246 251 249 249 236 232 227 221 211 209
186 201 205 205 207 205 203 203 211 218 228 238 239 236 235 227 212 206 207 201 204 200
158 166 189 192 200 207 217 227 218 215 196 189 206 212 215 207 215 209 196 202 205 216
73 102 134 176 191 204 197 200 192 198 201 214 221 220 221 223 234 212 196 218 225 219
Height
1453 1460 1467 1473 1480 1487 1493 1498 1504 1510 1516 1521 1527 1531 1534 1538 1541 1544 1547 1549 1552 1554
1445 1452 1458 1465 1474 1480 1487 1493 1499 1506 1512 1517 1522 1526 1529 1531 1535 1538 1541 1544 1546 1548
1433 1442 1451 1458 1465 1472 1480 1486 1494 1500 1506 1511 1516 1520 1523 1526 1529 1532 1534 1537 1539 1542
1426 1435 1444 1450 1458 1467 1474 1480 1487 1493 1499 1504 1508 1512 1515 1518 1521 1524 1527 1530 1532 1535
1421 1431 1437 1443 1451 1460 1467 1474 1481 1487 1492 1496 1501 1504 1507 1510 1513 1516 1519 1522 1525 1528
1417 1423 1430 1437 1446 1455 1464 1468 1474 1479 1484 1488 1492 1496 1499 1503 1506 1509 1511 1514 1517 1521
1410 1416 1424 1431 1440 1449 1454 1462 1466 1472 1476 1479 1484 1488 1491 1494 1497 1500 1503 1506 1509 1513
1404 1411 1418 1424 1435 1443 1449 1454 1460 1465 1469 1471 1473 1480 1483 1485 1488 1491 1494 1497 1501 1505
1401 1407 1412 1419 1426 1435 1442 1447 1452 1456 1460 1464 1468 1473 1475 1477 1479 1482 1483 1488 1492 1497
1396 1402 1407 1413 1420 1427 1434 1440 1444 1446 1451 1454 1459 1465 1466 1469 1470 1472 1476 1480 1485 1488
1392 1398 1402 1407 1412 1418 1426 1432 1436 1440 1444 1449 1453 1455 1457 1460 1461 1465 1469 1473 1478 1480
1389 1394 1398 1404 1408 1413 1418 1422 1430 1436 1440 1442 1444 1447 1451 1452 1454 1457 1462 1467 1473 1474
1390 1394 1401 1404 1408 1409 1407 1422 1427 1431 1433 1436 1441 1443 1447 1450 1452 1453 1457 1464 1466 1471
1396 1398 1400 1404 1407 1410 1410 1422 1425 1428 1428 1432 1437 1441 1443 1446 1449 1451 1455 1459 1463 1466